sat.trackr.live / text

‹ back to catalog

STARLINK-37053

NORAD 68159 · 2026-049T

PAYLOAD ACTIVE UNKNOWN

§ Identity

Operator
Country
US
Launch date
2026-03-13
Launch site
AFWTR
Launch vehicle
Mass (kg)
RCS (m²)

Purposes: comms

External: N2YO · Heavens-Above · Gunter

§ Orbital elements

Epoch: 2026-05-25T00:19:20.210304Z

Period
93.91 min
Inclination
97.2838°
Eccentricity
0.0001827
Mean motion
15.33453014 rev/d
Perigee alt
464.3 km
Apogee alt
466.8 km
Semi-major
6,843.7 km
B*
5.2445e-4
RAAN
166.6671°
Arg perigee
79.0032°
Mean anomaly
281.1416°
Rev number
1,134

§ Raw data

STARLINK-370531 68159U 26049T   26145.01342836  .00016899  00000+0  52445-3 0  99902 68159  97.2838 166.6671 0001827  79.0032 281.1416 15.33453014 11341

JSON: /api/v1/satellites/68159 · /tle

For live sub-satellite position, see the globe view (requires WebGL).

§ Visibility from observer

Set your observer location to see the next 7 days of passes ≥ 10°. The values pass through the URL so the page stays shareable.

No JS? Fill the form by hand. The geolocation button needs JavaScript.